Weather History for St. James, MN

Change the Weather History Date:

Thursday, August 22, 2013

  Actual Average Record
Temperature  
Mean Temperature 73 °F -  
Max Temperature 82 °F 79 °F 96 °F (1971)
Min Temperature 64 °F 59 °F 48 °F (2005)
Cooling Degree Days 8    
Growing Degree Days 23 (Base 50)    
Moisture  
Dew Point 64 °F    
Average Humidity 74    
Maximum Humidity 94    
Minimum Humidity 51    
Precipitation  
Precipitation 1.71 in - - ()
Sea Level Pressure  
Sea Level Pressure 30.09 in    
Wind  
Wind Speed 5 mph (NNE)    
Max Wind Speed 31 mph    
Max Gust Speed 37 mph    
Visibility 8 miles    
Events Rain , Thunderstorm    
Averages and records for this station are not official NWS values.
T = Trace of Precipitation, MM = Missing Value Source: NWS Daily Summary

Daily Weather History Graph

Daily Weather History Graph

Search for Another Location

Airport:

Trip Planner

Search our weather history database for the weather conditions in past years. The results will help you decide how hot, cold, wet, or windy it might be!

Date:

Astronomy

Aug. 22, 2013 Rise Set
Actual Time 6:30 AM CDT 8:10 PM CDT
Civil Twilight 5:59 AM CDT 8:41 PM CDT
Nautical Twilight 5:22 AM CDT 9:18 PM CDT
Astronomical Twilight 4:42 AM CDT 9:58 PM CDT
Moon 8:48 PM CDT (8/22) 8:25 AM CDT (8/22)
Length of Visible Light 14h 41m
Length of Day
13h 40m
Waning Gibbous, 96% of the Moon is Illuminated
Aug 22
Waning Gibbous
Aug 28
Last Quarter
Sep 5
New
Sep 12
First Quarter
Sep 19
Full

Hourly Weather History & Observations

Time (CDT) Temp. Heat Index Dew Point Humidity Pressure Visibility Wind Dir Wind Speed Gust Speed Precip Events Conditions
12:15 AM 73.4 °F - 71.6 °F 94% 30.02 in 4.0 mi Calm Calm - N/A   Clear
12:34 AM 73.4 °F - 71.6 °F 94% 30.02 in 3.0 mi Calm Calm - N/A   Clear
12:55 AM 73.4 °F - 69.8 °F 88% 30.03 in 2.5 mi Calm Calm - N/A   Clear
1:15 AM 73.4 °F - 69.8 °F 88% 30.03 in 4.0 mi Calm Calm - N/A   Scattered Clouds
1:34 AM 73.4 °F - 69.8 °F 88% 30.03 in 3.0 mi Calm Calm - N/A   Scattered Clouds
1:55 AM 73.4 °F - 69.8 °F 88% 30.04 in 4.0 mi Calm Calm - N/A   Mostly Cloudy
2:15 AM 71.6 °F - 69.8 °F 94% 30.03 in 3.0 mi Calm Calm - N/A   Scattered Clouds
2:34 AM 71.6 °F - 69.8 °F 94% 30.02 in 3.0 mi Calm Calm - N/A   Clear
2:55 AM 71.6 °F - 69.8 °F 94% 30.01 in 2.0 mi NNE 4.6 mph - N/A   Clear
3:15 AM 71.6 °F - 69.8 °F 94% 30.02 in 2.0 mi East 3.5 mph - N/A   Mostly Cloudy
3:34 AM 73.4 °F - 69.8 °F 88% 30.03 in 2.0 mi Calm Calm - N/A   Mostly Cloudy
3:55 AM 73.4 °F - 71.6 °F 94% 30.04 in 2.5 mi North 3.5 mph - N/A   Overcast
4:15 AM 73.4 °F - 71.6 °F 94% 30.04 in 2.0 mi NNE 3.5 mph - N/A   Overcast
4:34 AM 73.4 °F - 71.6 °F 94% 30.03 in 1.8 mi NNE 4.6 mph - N/A Thunderstorm Overcast
4:55 AM 73.4 °F - 71.6 °F 94% 30.03 in 2.5 mi North 5.8 mph - N/A Thunderstorm Overcast
5:15 AM 71.6 °F - 68.0 °F 88% 30.03 in 10.0 mi North 6.9 mph - N/A Thunderstorm Thunderstorm
5:34 AM 69.8 °F - 62.6 °F 78% 30.06 in 7.0 mi NNW 11.5 mph 19.6 mph 0.03 in Rain , Thunderstorm Heavy Thunderstorms and Rain
5:55 AM 66.2 °F - 64.4 °F 94% 30.08 in 1.0 mi NNW 31.1 mph 36.8 mph 0.74 in Rain , Thunderstorm Heavy Thunderstorms and Rain
6:15 AM 66.2 °F - 64.4 °F 94% 30.09 in 1.5 mi East 12.7 mph 29.9 mph 0.91 in Rain , Thunderstorm Heavy Thunderstorms and Rain
6:34 AM 66.2 °F - 64.4 °F 94% 30.08 in 10.0 mi North 9.2 mph 16.1 mph 0.96 in Rain , Thunderstorm Light Thunderstorms and Rain
6:55 AM 64.4 °F - 62.6 °F 94% 30.09 in 10.0 mi North 10.4 mph 16.1 mph 0.97 in Rain Light Rain
7:15 AM 64.4 °F - 62.6 °F 94% 30.07 in 10.0 mi NNW 6.9 mph - N/A   Scattered Clouds
7:34 AM 64.4 °F - 62.6 °F 94% 30.08 in 10.0 mi North 5.8 mph - N/A   Clear
7:55 AM 64.4 °F - 62.6 °F 94% 30.10 in 10.0 mi NNW 6.9 mph - N/A   Clear
8:15 AM 64.4 °F - 62.6 °F 94% 30.10 in 10.0 mi NW 4.6 mph - N/A   Clear
8:35 AM 66.2 °F - 62.6 °F 88% 30.10 in 10.0 mi NNW 6.9 mph - N/A   Clear
8:55 AM 66.2 °F - 62.6 °F 88% 30.10 in 10.0 mi North 9.2 mph - N/A   Clear
9:15 AM 69.8 °F - 60.8 °F 73% 30.10 in 10.0 mi North 9.2 mph - N/A   Scattered Clouds
9:34 AM 71.6 °F - 59.0 °F 64% 30.09 in 10.0 mi North 10.4 mph - N/A   Scattered Clouds
9:55 AM 73.4 °F - 57.2 °F 57% 30.10 in 10.0 mi NNE 9.2 mph 19.6 mph N/A   Clear
10:15 AM 73.4 °F - 57.2 °F 57% 30.10 in 10.0 mi NNE 9.2 mph 16.1 mph N/A   Clear
10:35 AM 73.4 °F - 57.2 °F 57% 30.10 in 10.0 mi NNE 9.2 mph - N/A   Clear
10:55 AM 73.4 °F - 55.4 °F 53% 30.11 in 10.0 mi NE 8.1 mph 17.3 mph N/A   Clear
11:14 AM 75.2 °F - 57.2 °F 53% 30.11 in 10.0 mi NE 11.5 mph - N/A   Clear
11:35 AM 75.2 °F - 57.2 °F 53% 30.11 in 10.0 mi NE 10.4 mph - N/A   Clear
11:55 AM 75.2 °F - 59.0 °F 57% 30.12 in 10.0 mi NE 8.1 mph - N/A   Clear
12:14 PM 77.0 °F - 60.8 °F 57% 30.12 in 10.0 mi NNE 11.5 mph - N/A   Clear
12:35 PM 77.0 °F - 59.0 °F 54% 30.12 in 10.0 mi NNE 10.4 mph - N/A   Clear
12:55 PM 78.8 °F - 59.0 °F 51% 30.11 in 10.0 mi NE 10.4 mph - N/A   Clear
1:14 PM 78.8 °F - 60.8 °F 54% 30.11 in 10.0 mi NNE 8.1 mph - N/A   Clear
1:35 PM 78.8 °F - 60.8 °F 54% 30.11 in 10.0 mi ENE 11.5 mph - N/A   Clear
1:55 PM 80.6 °F 81.5 °F 60.8 °F 51% 30.11 in 10.0 mi NNE 8.1 mph - N/A   Clear
2:14 PM 80.6 °F 81.8 °F 62.6 °F 54% 30.11 in 10.0 mi NE 5.8 mph - N/A   Clear
2:35 PM 80.6 °F 81.8 °F 62.6 °F 54% 30.11 in 10.0 mi NE 6.9 mph - N/A   Clear
2:55 PM 80.6 °F 82.3 °F 64.4 °F 58% 30.11 in 10.0 mi ENE 10.4 mph - N/A   Clear
3:15 PM 82.4 °F 83.9 °F 64.4 °F 54% 30.12 in 10.0 mi ENE 9.2 mph - N/A   Clear
3:35 PM 80.6 °F 81.8 °F 62.6 °F 54% 30.11 in 10.0 mi NE 5.8 mph - N/A   Clear
3:54 PM 82.4 °F 83.4 °F 62.6 °F 51% 30.11 in 10.0 mi NNE 6.9 mph - N/A   Clear
4:15 PM 82.4 °F 83.4 °F 62.6 °F 51% 30.11 in 10.0 mi NE 6.9 mph - N/A   Clear
4:35 PM 82.4 °F 83.4 °F 62.6 °F 51% 30.11 in 10.0 mi ENE 6.9 mph - N/A   Clear
4:55 PM 80.6 °F 81.5 °F 60.8 °F 51% 30.11 in 10.0 mi NE 6.9 mph - N/A   Clear
5:15 PM 82.4 °F 83.4 °F 62.6 °F 51% 30.11 in 10.0 mi NE 5.8 mph - N/A   Clear
5:35 PM 82.4 °F 83.9 °F 64.4 °F 54% 30.11 in 10.0 mi ENE 4.6 mph - N/A   Clear
5:55 PM 80.6 °F 81.8 °F 62.6 °F 54% 30.11 in 10.0 mi NE 4.6 mph - N/A   Clear
6:15 PM 80.6 °F 82.3 °F 64.4 °F 58% 30.10 in 10.0 mi East 4.6 mph - N/A   Clear
6:34 PM 80.6 °F 82.7 °F 66.2 °F 61% 30.10 in 10.0 mi Calm Calm - N/A   Clear
6:55 PM 80.6 °F 82.7 °F 66.2 °F 61% 30.10 in 10.0 mi Calm Calm - N/A   Clear
7:15 PM 78.8 °F - 68.0 °F 69% 30.10 in 10.0 mi Calm Calm - N/A   Clear
7:35 PM 77.0 °F - 66.2 °F 69% 30.10 in 10.0 mi NNE 3.5 mph - N/A   Clear
7:55 PM 75.2 °F - 64.4 °F 69% 30.10 in 10.0 mi NE 3.5 mph - N/A   Clear
8:15 PM 73.4 °F - 66.2 °F 78% 30.11 in 10.0 mi North 4.6 mph - N/A   Clear
8:34 PM 71.6 °F - 64.4 °F 78% 30.11 in 10.0 mi NNE 4.6 mph - N/A   Clear
8:55 PM 71.6 °F - 64.4 °F 78% 30.12 in 10.0 mi NNE 3.5 mph - N/A   Clear
9:15 PM 71.6 °F - 62.6 °F 73% 30.13 in 10.0 mi NNE 4.6 mph - N/A   Clear
9:34 PM 71.6 °F - 62.6 °F 73% 30.13 in 10.0 mi NNE 4.6 mph - N/A   Clear
9:55 PM 69.8 °F - 62.6 °F 78% 30.13 in 10.0 mi NNE 3.5 mph - N/A   Clear
10:15 PM 69.8 °F - 62.6 °F 78% 30.13 in 10.0 mi NNE 3.5 mph - N/A   Clear
10:35 PM 68.0 °F - 62.6 °F 83% 30.13 in 10.0 mi NNE 3.5 mph - N/A   Clear
10:54 PM 68.0 °F - 62.6 °F 83% 30.13 in 10.0 mi Calm Calm - N/A   Clear
11:15 PM 68.0 °F - 62.6 °F 83% 30.13 in 10.0 mi NE 4.6 mph - N/A   Clear
11:35 PM 66.2 °F - 62.6 °F 88% 30.13 in 10.0 mi Calm Calm - N/A   Clear
11:55 PM 66.2 °F - 60.8 °F 83% 30.13 in 10.0 mi NE 3.5 mph - N/A   Clear